EW8360 Weather Reports


Display with metric or nautical units.
time (UTC)temp
F
wind
direction
speed
MPH
gust
MPH
rain 1hr
in
rain 24hr
in
rain mn
in
humidity
%
barometer
mb
20210615033400 64 231 0.0 2.0 0.00 0.00 0.00 100 1010.5
20210615032859 64 300 1.0 2.0 0.00 0.00 0.00 100 1010.4
20210615032401 65 247 0.0 5.0 0.00 0.00 0.00 100 1010.4
20210615031859 65 332 1.0 8.0 0.00 0.00 0.00 100 1010.4
20210615031358 65 338 0.0 8.0 0.00 0.00 0.00 100 1010.3
20210615030902 66 0 3.0 8.0 0.00 0.00 0.00 100 1010.1
20210615030858 65 338 3.0 8.0 0.00 0.00 0.00 100 1010.3
20210615025858 66 242 2.0 8.0 0.00 0.00 0.00 100 1010.2
20210615025358 67 217 2.0 8.0 0.00 0.00 0.00 100 1010.0
20210615024859 67 260 0.0 8.0 0.00 0.00 0.00 100 1009.9
20210615024412 67 222 2.0 8.0 0.00 0.00 0.00 100 1009.9
20210615023859 68 351 0.0 8.0 0.00 0.00 0.00 100 1009.8
20210615023358 68 250 3.0 8.0 0.00 0.00 0.00 100 1009.8
20210615022858 69 277 1.0 10.0 0.00 0.00 0.00 100 1009.7
20210615022400 69 301 4.0 10.0 0.00 0.00 0.00 100 1009.7
20210615021900 69 306 3.0 8.0 0.00 0.00 0.00 100 1009.7
20210615021357 69 322 3.0 8.0 0.00 0.00 0.00 100 1009.6
20210615020858 70 264 0.0 8.0 0.00 0.00 0.00 100 1009.7
20210615020357 70 220 2.0 8.0 0.00 0.00 0.00 100 1009.7
20210615015857 70 297 1.0 8.0 0.00 0.00 0.00 100 1009.7
20210615015408 70 268 0.0 8.0 0.00 0.00 0.00 100 1009.7
20210615014858 71 172 2.0 8.0 0.00 0.00 0.00 100 1009.7
20210615014357 71 334 0.0 8.0 0.00 0.00 0.00 100 1009.8
20210615013857 72 65 0.0 8.0 0.00 0.00 0.00 100 1009.8
20210615013357 72 319 2.0 8.0 0.00 0.00 0.00 100 1009.8
20210615012858 72 30 1.0 8.0 0.00 0.00 0.00 100 1009.7
20210615012356 73 19 1.0 8.0 0.00 0.00 0.00 100 1009.7
20210615011858 73 253 3.0 5.0 0.00 0.00 0.00 100 1009.8
20210615011356 73 309 3.0 10.0 0.00 0.00 0.00 100 1009.7
20210615010857 73 347 0.0 10.0 0.00 0.00 0.00 100 1009.7
20210615010357 73 344 1.0 8.0 0.00 0.00 0.00 100 1009.6
20210615005857 73 309 3.0 8.0 0.00 0.00 0.00 100 1009.6
20210615005357 73 320 3.0 8.0 0.00 0.00 0.00 100 1009.6
20210615004856 73 306 2.0 10.0 0.00 0.00 0.00 100 1009.7
20210615004358 73 34 2.0 10.0 0.00 0.00 0.00 100 1009.6
20210615003855 74 308 3.0 13.0 0.00 0.00 0.00 100 1009.7
20210615003355 74 336 4.0 13.0 0.00 0.00 0.00 100 1009.7
20210615002855 74 3 5.0 10.0 0.00 0.00 0.00 100 1009.7
20210615002355 74 306 3.0 8.0 0.00 0.00 0.00 100 1009.6
20210615001855 75 313 2.0 13.0 0.00 0.00 0.00 100 1009.7
20210615001355 75 33 3.0 13.0 0.00 0.00 0.00 100 1009.7
20210615000855 74 35 1.0 8.0 0.00 0.00 0.00 100 1009.7
20210615000355 74 265 4.0 8.0 0.00 0.00 0.00 100 1009.8
20210614235853 74 317 3.0 8.0 0.00 0.00 0.00 100 1009.8
20210614235356 74 23 3.0 8.0 0.00 0.00 0.00 100 1009.9
20210614234851 74 312 2.0 10.0 0.00 0.00 0.00 100 1009.8
20210614234352 74 289 4.0 10.0 0.00 0.00 0.00 100 1009.9
20210614233850 74 338 4.0 10.0 0.00 0.00 0.00 100 1009.9
20210614233349 75 297 2.0 10.0 0.00 0.00 0.00 100 1009.9
20210614232851 75 358 5.0 10.0 0.00 0.00 0.00 100 1010.0
20210614232350 75 35 4.0 10.0 0.00 0.00 0.00 100 1009.9
20210614231851 76 293 6.0 13.0 0.00 0.00 0.00 100 1010.0
20210614231349 76 349 3.0 13.0 0.00 0.00 0.00 100 1010.0
20210614230849 76 335 5.0 10.0 0.00 0.00 0.00 100 1010.0
20210614230351 76 267 8.0 10.0 0.00 0.00 0.00 100 1010.1
20210614225850 76 296 4.0 10.0 0.00 0.00 0.00 100 1010.2
20210614225349 76 282 3.0 10.0 0.00 0.00 0.00 100 1010.2
20210614224849 75 330 2.0 8.0 0.00 0.00 0.00 100 1010.2
20210614224348 75 271 1.0 10.0 0.00 0.00 0.00 100 1010.2
20210614223849 75 203 3.0 13.0 0.00 0.00 0.00 100 1010.2
20210614223350 75 281 6.0 13.0 0.00 0.00 0.00 100 1010.2
20210614222849 75 287 4.0 13.0 0.00 0.00 0.00 100 1010.2
20210614222347 75 347 5.0 10.0 0.00 0.00 0.00 100 1010.3
20210614221848 75 326 5.0 10.0 0.00 0.00 0.00 100 1010.3
20210614221348 74 4 6.0 10.0 0.00 0.00 0.00 100 1010.4
20210614220846 74 264 6.0 10.0 0.00 0.00 0.00 100 1010.4
20210614220349 74 36 2.0 10.0 0.00 0.00 0.00 100 1010.3
20210614215853 73 337 4.0 15.0 0.00 0.00 0.00 100 1010.5
20210614215848 74 237 1.0 10.0 0.00 0.00 0.00 100 1010.4
20210614214845 73 287 1.0 15.0 0.00 0.00 0.00 100 1010.5
20210614214347 73 264 6.0 13.0 0.00 0.00 0.00 100 1010.5
20210614213846 73 344 5.0 13.0 0.00 0.00 0.00 100 1010.6
20210614213346 73 259 3.0 13.0 0.00 0.00 0.00 100 1010.6
20210614212846 73 346 4.0 10.0 0.00 0.00 0.00 100 1010.6
20210614212346 73 291 5.0 10.0 0.00 0.00 0.00 100 1010.8
20210614211844 73 322 6.0 10.0 0.00 0.00 0.00 100 1010.8
20210614211348 73 323 2.0 8.0 0.00 0.00 0.00 100 1010.8
20210614210844 73 254 2.0 8.0 0.00 0.00 0.00 100 1010.7
20210614210345 73 174 4.0 8.0 0.00 0.00 0.00 100 1010.8
20210614205841 73 146 2.0 13.0 0.00 0.00 0.00 100 1010.7
20210614205340 73 318 4.0 13.0 0.00 0.00 0.00 100 1010.8
20210614204840 73 215 3.0 10.0 0.00 0.00 0.00 100 1010.7
20210614204339 73 334 6.0 10.0 0.00 0.00 0.00 100 1010.6
20210614203840 73 39 3.0 10.0 0.00 0.00 0.00 100 1010.6
20210614203352 72 37 3.0 13.0 0.00 0.00 0.00 100 1010.4
20210614202848 72 3 1.0 13.0 0.00 0.00 0.00 100 1010.6
20210614202339 72 14 6.0 13.0 0.00 0.00 0.00 100 1010.5
20210614201838 72 292 6.0 10.0 0.00 0.00 0.00 100 1010.5
20210614201340 72 266 6.0 15.0 0.00 0.00 0.00 100 1010.5
20210614200840 72 146 2.0 15.0 0.00 0.00 0.00 100 1010.5
20210614200339 72 273 4.0 10.0 0.00 0.00 0.00 100 1010.5
20210614195840 72 267 1.0 13.0 0.00 0.00 0.00 100 1010.6
20210614195338 72 243 3.0 13.0 0.00 0.00 0.00 100 1010.7
20210614194838 72 338 6.0 10.0 0.00 0.00 0.00 100 1010.8
20210614194336 73 318 3.0 10.0 0.00 0.00 0.00 100 1010.8
20210614193835 73 14 5.0 10.0 0.00 0.00 0.00 100 1010.8
20210614192835 73 343 4.0 10.0 0.00 0.00 0.00 100 1010.9
20210614192337 73 328 5.0 10.0 0.00 0.00 0.00 100 1010.9
20210614191836 73 62 4.0 10.0 0.00 0.00 0.00 100 1011.0
20210614191336 73 245 2.0 10.0 0.00 0.00 0.00 100 1011.0
20210614190837 73 273 2.0 8.0 0.00 0.00 0.00 100 1010.9
20210614190336 73 225 3.0 8.0 0.00 0.00 0.00 100 1010.8
20210614185836 73 334 4.0 8.0 0.00 0.00 0.00 100 1010.9
20210614185335 73 5 0.0 10.0 0.00 0.00 0.00 100 1010.9
20210614184847 73 39 2.0 10.0 0.00 0.00 0.00 100 1010.9
20210614184349 73 306 4.0 8.0 0.00 0.00 0.00 100 1011.0
20210614183834 73 240 3.0 10.0 0.00 0.00 0.00 100 1011.0
20210614183335 73 353 4.0 10.0 0.00 0.00 0.00 100 1011.0
20210614182835 72 224 5.0 8.0 0.00 0.00 0.00 100 1011.1
20210614182346 72 272 2.0 8.0 0.00 0.00 0.00 100 1011.2
20210614181832 72 26 5.0 8.0 0.00 0.00 0.00 100 1011.2
20210614181333 71 251 2.0 5.0 0.00 0.00 0.00 100 1011.1
20210614180833 71 11 2.0 8.0 0.00 0.00 0.00 100 1011.1
20210614180332 71 277 3.0 8.0 0.00 0.00 0.00 100 1011.1
20210614175831 71 291 5.0 8.0 0.00 0.00 0.00 100 1011.1
20210614175333 71 338 1.0 5.0 0.00 0.00 0.00 100 1011.0
20210614174832 71 282 2.0 8.0 0.00 0.00 0.00 100 1011.1
20210614174330 71 293 3.0 8.0 0.00 0.00 0.00 100 1011.1
20210614173829 71 279 1.0 10.0 0.00 0.00 0.00 100 1011.1
20210614173330 72 323 3.0 10.0 0.00 0.00 0.00 100 1010.9
20210614172829 72 301 2.0 13.0 0.00 0.00 0.00 100 1011.0
20210614172329 72 255 1.0 13.0 0.00 0.00 0.00 100 1011.1
20210614171830 73 288 2.0 10.0 0.00 0.00 0.00 100 1011.0
20210614171328 73 268 3.0 10.0 0.00 0.00 0.00 100 1011.0
20210614170828 73 343 2.0 10.0 0.00 0.00 0.00 100 1011.0
20210614170331 73 355 2.0 8.0 0.00 0.00 0.00 100 1011.0
20210614165829 73 357 2.0 8.0 0.00 0.00 0.00 100 1011.0
20210614165330 73 244 3.0 8.0 0.00 0.00 0.00 100 1011.1
20210614164827 73 31 2.0 5.0 0.00 0.00 0.00 100 1011.0
20210614164329 72 170 0.0 5.0 0.00 0.00 0.00 100 1011.1
20210614163828 72 24 1.0 8.0 0.00 0.00 0.00 100 1011.1
20210614163329 71 282 1.0 8.0 0.00 0.00 0.00 100 1011.0
20210614162832 71 243 0.0 8.0 0.00 0.00 0.00 100 1011.0
20210614162327 71 290 1.0 8.0 0.00 0.00 0.00 100 1011.0
20210614161830 71 307 2.0 10.0 0.00 0.00 0.00 100 1011.1
20210614161327 70 249 0.0 10.0 0.00 0.00 0.00 100 1011.0
20210614160827 70 35 1.0 8.0 0.00 0.00 0.00 100 1011.1
20210614160329 70 327 5.0 8.0 0.00 0.00 0.00 100 1011.2
20210614155827 69 25 2.0 8.0 0.00 0.00 0.00 100 1011.1
20210614155327 69 323 2.0 2.0 0.00 0.00 0.00 100 1011.2
20210614154826 69 337 2.0 2.0 0.00 0.00 0.00 100 1011.2
20210614154327 68 273 1.0 2.0 0.00 0.00 0.00 100 1011.2
20210614153825 67 16 1.0 8.0 0.00 0.00 0.00 100 1011.3
20210614153326 67 327 0.0 8.0 0.00 0.00 0.00 100 1011.3
20210614152827 66 356 1.0 5.0 0.00 0.00 0.00 100 1011.2
20210614152326 65 43 0.0 5.0 0.00 0.00 0.00 100 1011.2
20210614151827 65 344 1.0 8.0 0.00 0.00 0.00 100 1011.1
20210614151327 65 22 3.0 8.0 0.00 0.00 0.00 100 1011.1
20210614150825 64 56 0.0 5.0 0.00 0.00 0.00 100 1011.1
20210614150325 64 338 0.0 8.0 0.00 0.00 0.00 100 1011.0
20210614145827 63 327 2.0 8.0 0.00 0.00 0.00 100 1011.0
20210614145325 63 310 0.0 8.0 0.00 0.00 0.00 100 1011.1
20210614144825 62 321 1.0 8.0 0.00 0.00 0.00 100 1011.1
20210614144327 62 0 0.0 5.0 0.00 0.00 0.00 100 1011.1
20210614143828 62 312 2.0 8.0 0.00 0.00 0.00 100 1011.0
20210614143325 62 355 3.0 8.0 0.00 0.00 0.00 100 1011.1
20210614142826 61 314 0.0 5.0 0.00 0.00 0.00 100 1011.0
20210614142325 61 295 0.0 5.0 0.00 0.00 0.00 100 1011.0
20210614141823 60 294 2.0 5.0 0.00 0.00 0.00 100 1011.0
20210614141323 60 321 2.0 5.0 0.00 0.00 0.00 100 1010.9
20210614140822 60 337 2.0 2.0 0.00 0.00 0.00 100 1011.0
20210614140322 60 344 0.0 5.0 0.00 0.00 0.00 100 1011.0
20210614135822 60 4 0.0 8.0 0.00 0.00 0.00 100 1011.0
20210614135322 60 337 5.0 10.0 0.00 0.00 0.00 100 1010.9
20210614134823 60 340 3.0 10.0 0.00 0.00 0.00 100 1010.8
20210614134322 59 338 0.0 5.0 0.00 0.00 0.00 100 1010.7
20210614133822 59 36 2.0 5.0 0.00 0.00 0.00 100 1010.6
20210614133323 59 353 1.0 5.0 0.00 0.00 0.00 100 1010.5
20210614132821 59 341 4.0 5.0 0.00 0.00 0.00 100 1010.5
20210614132320 59 346 1.0 5.0 0.00 0.00 0.00 100 1010.4
20210614131820 59 25 1.0 8.0 0.00 0.00 0.00 100 1010.3
20210614131322 59 7 2.0 8.0 0.00 0.00 0.00 100 1010.4
20210614130821 59 341 2.0 5.0 0.00 0.00 0.00 100 1010.4
20210614130319 59 34 0.0 5.0 0.00 0.00 0.00 100 1010.3
20210614125820 59 70 0.0 5.0 0.00 0.00 0.00 100 1010.4
20210614125320 59 7 2.0 8.0 0.00 0.00 0.00 100 1010.4
20210614124820 59 351 1.0 8.0 0.00 0.00 0.00 100 1010.4
20210614124333 59 47 1.0 5.0 0.00 0.00 0.00 100 1010.3
20210614124329 59 8 3.0 5.0 0.00 0.00 0.00 100 1010.3
20210614123319 59 340 2.0 5.0 0.00 0.00 0.00 100 1010.3
20210614122820 59 343 0.0 0.0 0.00 0.00 0.00 100 1010.4
20210614122319 59 326 0.0 0.0 0.00 0.00 0.00 100 1010.4
20210614121819 59 292 0.0 0.0 0.00 0.00 0.00 100 1010.5
20210614121319 59 304 0.0 0.0 0.00 0.00 0.00 100 1010.5
20210614120819 59 264 0.0 0.0 0.00 0.00 0.00 100 1010.5
20210614120318 59 288 0.0 0.0 0.00 0.00 0.00 100 1010.5
20210614115819 59 313 0.0 0.0 0.00 0.00 0.00 100 1010.4
20210614115318 59 254 0.0 0.0 0.00 0.00 0.00 100 1010.4
20210614114817 59 165 0.0 0.0 0.00 0.00 0.00 100 1010.4
20210614114318 59 185 0.0 0.0 0.00 0.00 0.00 100 1010.3
20210614113817 59 195 0.0 0.0 0.00 0.00 0.00 100 1010.3
20210614113320 59 203 0.0 0.0 0.00 0.00 0.00 100 1010.3
20210614112817 59 249 0.0 0.0 0.00 0.00 0.00 100 1010.2
20210614112318 60 273 0.0 2.0 0.00 0.00 0.00 100 1010.1
20210614111821 60 308 0.0 5.0 0.00 0.00 0.00 100 1010.0
20210614111317 60 337 3.0 8.0 0.00 0.00 0.00 100 1009.9
20210614110817 60 8 2.0 8.0 0.00 0.00 0.00 100 1009.8
20210614110318 60 16 2.0 8.0 0.00 0.00 0.00 100 1009.9
20210614105818 60 9 0.0 8.0 0.00 0.00 0.00 100 1009.8
20210614105316 60 52 2.0 8.0 0.00 0.00 0.00 100 1009.9
20210614104817 60 1 1.0 8.0 0.00 0.00 0.00 100 1009.8
20210614104316 60 343 4.0 10.0 0.00 0.00 0.00 100 1009.9
20210614103819 60 336 6.0 13.0 0.00 0.00 0.00 100 1009.8
20210614103316 60 311 7.0 13.0 0.00 0.00 0.00 100 1009.9
20210614102816 60 339 9.0 13.0 0.00 0.00 0.00 100 1009.9
20210614102319 60 1 7.0 8.0 0.00 0.00 0.00 100 1009.8
20210614101816 60 358 2.0 10.0 0.00 0.00 0.00 100 1009.9
20210614101315 60 351 6.0 10.0 0.00 0.00 0.00 100 1010.0
20210614100817 60 23 2.0 10.0 0.00 0.00 0.00 100 1009.9
20210614100315 60 48 3.0 13.0 0.00 0.00 0.00 100 1010.0
20210614095815 60 345 3.0 13.0 0.00 0.00 0.00 100 1009.9
20210614095320 60 347 9.0 13.0 0.00 0.00 0.00 100 1010.0
20210614094816 60 1 6.0 13.0 0.00 0.00 0.00 100 1010.2
20210614094316 60 349 4.0 8.0 0.00 0.00 0.00 100 1010.2
20210614093815 60 325 2.0 8.0 0.00 0.00 0.00 100 1010.2
20210614093314 60 349 2.0 5.0 0.00 0.00 0.00 100 1010.4
20210614092817 61 2 1.0 8.0 0.00 0.00 0.00 100 1010.4
20210614092315 61 46 1.0 10.0 0.00 0.00 0.00 100 1010.5
20210614091826 61 38 1.0 10.0 0.00 0.00 0.00 100 1010.5
20210614091314 61 351 2.0 10.0 0.00 0.00 0.00 100 1010.5
20210614090814 61 339 6.0 10.0 0.00 0.00 0.00 100 1010.6
20210614090314 61 1 2.0 10.0 0.00 0.00 0.00 100 1010.7
20210614085814 61 335 7.0 10.0 0.00 0.00 0.00 100 1010.6
20210614085315 61 353 5.0 10.0 0.00 0.00 0.00 100 1010.7
20210614084814 61 342 2.0 10.0 0.00 0.00 0.00 100 1010.7
20210614084316 61 15 4.0 10.0 0.00 0.00 0.00 100 1010.7
20210614083824 61 337 6.0 8.0 0.00 0.00 0.00 100 1010.7
20210614083313 61 334 6.0 10.0 0.00 0.00 0.00 100 1010.7
20210614082814 61 4 3.0 10.0 0.00 0.00 0.00 100 1010.8
20210614082314 61 14 1.0 8.0 0.00 0.00 0.00 100 1010.8
20210614081813 61 338 4.0 10.0 0.00 0.00 0.00 100 1010.9
20210614081313 61 339 5.0 10.0 0.00 0.00 0.00 100 1010.9
20210614080813 61 295 6.0 8.0 0.00 0.00 0.00 100 1010.9
20210614080313 61 336 2.0 8.0 0.00 0.00 0.00 100 1010.9
20210614075813 61 301 4.0 8.0 0.00 0.00 0.00 100 1010.9
20210614075314 61 338 2.0 8.0 0.00 0.00 0.00 100 1011.0
20210614074813 61 329 2.0 5.0 0.00 0.00 0.00 100 1010.9
20210614074314 61 309 1.0 5.0 0.00 0.00 0.00 100 1011.0
20210614073812 61 326 1.0 5.0 0.00 0.00 0.00 100 1010.9
20210614073314 61 345 0.0 2.0 0.00 0.00 0.00 100 1011.0
20210614072811 61 330 0.0 5.0 0.00 0.00 0.00 100 1011.0
20210614072313 61 329 1.0 5.0 0.00 0.00 0.00 100 1011.1
20210614071813 61 330 2.0 5.0 0.00 0.00 0.00 100 1011.1
20210614071311 61 332 4.0 5.0 0.00 0.00 0.00 100 1011.1
20210614070811 61 333 4.0 8.0 0.00 0.00 0.00 100 1011.2
20210614070315 61 321 2.0 8.0 0.00 0.00 0.00 100 1011.3
20210614065811 61 338 2.0 8.0 0.00 0.00 0.00 100 1011.3
20210614065311 61 1 2.0 8.0 0.00 0.00 0.00 100 1011.4
20210614064811 61 304 3.0 8.0 0.00 0.00 0.00 100 1011.3
20210614064311 61 321 5.0 8.0 0.00 0.00 0.00 100 1011.3
20210614063810 61 327 3.0 8.0 0.00 0.00 0.00 100 1011.4
20210614063312 62 298 1.0 2.0 0.00 0.00 0.00 100 1011.4
20210614062810 62 327 0.0 5.0 0.00 0.00 0.00 100 1011.5
20210614062312 62 314 0.0 8.0 0.00 0.00 0.00 100 1011.4
20210614061812 62 337 2.0 8.0 0.00 0.00 0.00 100 1011.4
20210614061310 62 334 4.0 5.0 0.00 0.00 0.00 100 1011.4
20210614060810 61 335 3.0 5.0 0.00 0.00 0.00 100 1011.5
20210614060311 61 350 0.0 8.0 0.00 0.00 0.00 100 1011.6
20210614055810 61 343 1.0 8.0 0.00 0.00 0.00 100 1011.6
20210614055310 61 330 6.0 10.0 0.00 0.00 0.00 100 1011.6
20210614054810 61 338 5.0 10.0 0.00 0.00 0.00 100 1011.5
20210614054310 61 340 3.0 10.0 0.00 0.00 0.00 100 1011.5
20210614053811 61 331 6.0 10.0 0.00 0.00 0.00 100 1011.5
20210614053311 61 359 5.0 8.0 0.00 0.00 0.00 100 1011.5
20210614052810 61 348 4.0 8.0 0.00 0.00 0.00 100 1011.5
20210614052309 61 347 2.0 8.0 0.00 0.00 0.00 100 1011.6
20210614051821 61 309 5.0 10.0 0.00 0.00 0.00 100 1011.6
20210614051309 61 329 6.0 10.0 0.00 0.00 0.00 100 1011.6
20210614050808 61 333 5.0 10.0 0.00 0.00 0.00 100 1011.6
20210614050309 61 356 3.0 13.0 0.00 0.00 0.00 100 1011.5
20210614045809 61 7 3.0 13.0 0.00 0.00 0.00 100 1011.5
20210614045310 61 332 7.0 13.0 0.00 0.00 0.00 100 1011.5
20210614044809 61 334 7.0 13.0 0.00 0.00 0.00 100 1011.5
20210614044308 61 344 6.0 13.0 0.00 0.00 0.00 100 1011.5
20210614043811 61 344 6.0 13.0 0.00 0.00 0.00 100 1011.4
20210614043310 62 295 1.0 10.0 0.00 0.00 0.00 100 1011.4
20210614042809 62 339 4.0 10.0 0.00 0.00 0.00 100 1011.4
20210614042308 62 333 7.0 10.0 0.00 0.00 0.00 100 1011.2
20210614041810 62 8 3.0 10.0 0.00 0.00 0.00 100 1011.2
20210614041309 62 352 5.0 13.0 0.00 0.00 0.00 100 1011.2
20210614040808 62 351 3.0 13.0 0.00 0.00 0.00 100 1011.2
20210614040309 62 343 5.0 10.0 0.00 0.00 0.00 100 1011.0
20210614035807 62 333 6.0 10.0 0.00 0.00 0.00 100 1011.0
20210614035307 62 10 2.0 10.0 0.00 0.00 0.00 100 1010.9
20210614034807 63 324 4.0 10.0 0.00 0.00 0.00 100 1010.8
20210614034307 63 336 3.0 10.0 0.00 0.00 0.00 100 1010.8
20210614033807 63 341 5.0 8.0 0.00 0.00 0.00 100 1010.7